User: anonymous   Login
Location: Caltech
(34.1382°N, 118.1253°W)
Time: 11:41:04
(UTC-07:00)
Language:

SO-67 - Orbit

View from above orbital plane
View from above orbital plane
View from above satellite
View from above satellite

Ground track
Ground track

The orbit data is extracted from the following two-line orbital elements,

1 35870U 09049F   18140.95988705 +.00005654 +00000-0 +77793-4 0  9997
2 35870 097.0833 160.2285 0000651 129.9485 291.7446 15.57673192485735
Epoch (UTC): 20 May 2018 23:02:14
Eccentricity: 0.0000651
inclination: 97.0833°
perigee height: 394 km
apogee height: 395 km
right ascension of ascending node: 160.2285°
argument of perigee: 129.9485°
revolutions per day: 15.57673192
mean anomaly at epoch: 291.7446°
orbit number at epoch: 48573

The dashed part of the orbit path shows where the satellite is in the earth's shadow,  

DLR